Вернуться в каталог

GAOFEN 8

АктивенНаукаPO
NORAD 40701·PAYLOAD·🇨🇳 China

Запущен Jun 26, 2015 с Taiyuan Satellite Launch Center

Loading…

Ближайшие Пролёты (ближайшие 24 часа)

TLE

СвежийSource: Space-Track

Эпоха: Sep 14, 2026, 15:30 UTC

1 40701U 15030A   26257.64617767  .00014139  00000-0  26318-3 0  9998
2 40701  97.6848  96.5858 0007059 224.7142 135.3540 15.48957712625283

Отслеживайте GAOFEN 8 в реальном времени с AllMySat

Download on the App Store